Regional Weather Roundup
Issued by NWS Boston, MA

Current Version | Previous Version | Text Only | Print | Product List | Glossary Off
Versions: 1 2 3 4 5 6 7 8 9 10 11 12 13 14 15 16 17 18 19 20 21 22 23 24 25 26 27
000 ASUS41 KBOX 270910 RWRBOX REGIONAL WEATHER ROUNDUP NATIONAL WEATHER SERVICE TAUNTON MA 500 AM EDT SAT MAY 27 2017 NOTE: "FAIR" INDICATES FEW OR NO CLOUDS BELOW 12,000 FEET WITH NO SIGNIFICANT WEATHER AND/OR OBSTRUCTIONS TO VISIBILITY. MAZALL-271000- EASTERN MASSACHUSETTS CITY SKY/WX TMP DP RH WIND PRES REMARKS BOSTON CLOUDY 53 50 89 NW7 29.80R BEVERLY LGT RAIN 53 51 93 NW5 29.79R FOG LAWRENCE CLOUDY 54 51 90 CALM 29.81R BEDFORD CLOUDY 52 49 89 CALM 29.79R BLUE HILL N/A 51 50 96 NW5 29.79R NORWOOD CLOUDY 53 52 96 CALM 29.80R MARSHFIELD CLOUDY 54 54 100 CALM 29.80R PLYMOUTH CLOUDY 53 51 93 W5 29.80R TAUNTON CLOUDY 53 51 93 W3 29.80R NEW BEDFORD CLOUDY 53 51 93 CALM 29.79R $$ MAZALL-271000- CAPE COD AND THE ISLANDS CITY SKY/WX TMP DP RH WIND PRES REMARKS FALMOUTH N/A N/A N/A N/A MISG N/A HYANNIS CLOUDY 53 51 93 NW6 29.77R CHATHAM CLOUDY 53 52 96 VRB3 29.78R PROVINCETOWN CLOUDY 52 50 93 NW7 29.80R NANTUCKET CLOUDY N/A N/A N/A N9 29.78R MARTHAS VNYRD CLOUDY 54 52 93 NW5 29.79R $$ MAZALL-271000- CENTRAL AND WESTERN MASSACHUSETTS CITY SKY/WX TMP DP RH WIND PRES REMARKS WORCESTER CLOUDY 50 46 86 NW9 29.81R FITCHBURG PTCLDY 52 49 89 N5 29.81R ORANGE CLOUDY 51 50 96 NW3 29.82R SPRINGFIELD CLOUDY 53 52 96 NE3 29.81R WESTFIELD MOCLDY 53 50 89 NW6 29.82R NORTH ADAMS MOCLDY 50 47 89 W6 29.84R $$ RIZALL-271000- RHODE ISLAND CITY SKY/WX TMP DP RH WIND PRES REMARKS PROVIDENCE CLOUDY 55 54 96 N3 29.81R NEWPORT CLOUDY 54 54 100 N3 29.80R BLOCK ISLAND CLOUDY 55 53 93 NW8 29.81R SMITHFIELD CLOUDY 52 51 97 CALM 29.81R WESTERLY CLOUDY 57 54 89 N5 29.81R $$ CTZALL-271000- CONNECTICUT CITY SKY/WX TMP DP RH WIND PRES REMARKS BRADLEY INTL MOCLDY 54 49 83 W7 29.82R HARTFORD CLOUDY 58 50 75 NW7 29.82R BRIDGEPORT CLOUDY 59 52 77 CALM 29.83R DANBURY CLOUDY 53 53 100 CALM 29.84S GROTON CLOUDY 58 52 80 NW5 29.80R NEW HAVEN PTCLDY 55 50 83 NW3 29.82R CHESTER CLOUDY 57 54 88 NW5 29.82R MERIDEN MOCLDY 57 52 83 W3 29.83R WILLIMANTIC CLOUDY 56 53 90 N3 29.82R OXFORD N/A 52 46 82 N7 29.84R $$ MEZ002-015-021-024-NHZ003-005-008-011-012-014-VTZ005-008-271000- NORTHERN NEW ENGLAND CITY SKY/WX TMP DP RH WIND PRES REMARKS PORTLAND ME MOCLDY 49 48 97 W3 29.77S BANGOR ME DRIZZLE 47 46 97 N6 29.77R FOG CONCORD NH CLOUDY 52 48 86 NW6 29.80R MANCHESTER NH CLOUDY 53 48 83 NW8 29.78R NASHUA NH CLOUDY 51 50 96 W5 29.81R PORTSMOUTH NH MOCLDY 52 50 92 CALM 29.77R JAFFREY NH MOCLDY 49 47 93 NW5 29.81R KEENE NH CLOUDY 50 49 96 CALM 29.83R BURLINGTON VT CLOUDY 51 49 92 CALM 29.87R MT. WASHINGTON FOG 32 32 100 NE39 N/A VSB 1/16WCI 16 $$ NYZ052-076-271000- EASTERN NEW YORK CITY SKY/WX TMP DP RH WIND PRES REMARKS ALBANY MOCLDY 54 50 86 N6 29.86R NEW YORK CITY PTCLDY 63 53 70 W14 29.83R $$ ANZALL-271000- MARINE OBSERVATIONS STATION/POSITION TIME TEMP WIND PRES VSBY WAVE AIR SEA DIR/SP/G HT/PER (UTC) (F) (DEG/KT/KT) (MB) (MI) (FT/S) BOSTON BUOY 0750 53 53 280/ 6/ 8 1007.4 3/ 8 BUZZARDS BAY 0800 54 320/ 9/ 9 1008.9R NANTUCKET SOUND 0850 52 1008.2R 1/ 6 MASS BAY-STELLWA 0804 51 49 310/ 6/ 8 1007.2R 2/ 8 ISLE OF SHOALS 0800 52 300/ 5/ 5 1007.7R S OF BLOCK IS 0855 53 N/A 6/10 $$ ......................KEY......................... SKY/WX - SKY CONDITION/PRESENT WEATHER TMP - TEMPERATURE IN FAHRENHEIT DWPT - DEWPOINT IN FAHRENHEIT RH - RELATIVE HUMIDITY IN PERCENT WIND - DIRECTION AND SPEED IN MPH PRES - MEAN SEA LEVEL PRESSURE IN INCHES OF HG WCI - WIND CHILL INDEX VSB - VISIBILITY IN MILES HX - HEAT INDEX TC - TEMPERATURE IN CELSIUS VRB - VARIABLE WIND DIRECTION N/A - NOT AVAILABLE

USA.gov is the U.S. government's official web portal to all federal, state and local government web resources and services.